Location: ????????
(56.0167°N, 38.0333°E)
Time: 06:37:57
(UTC+00:00)

Cosmos 1048 Rocket - Pass Details

Date: 19 May 2025
Orbit: 739 x 787 km, 74.0° (Epoch: 15 June)

Event Time Altitude Azimuth Distance (km) Brightness Sun altitude
Exits shadow 22:39:58 17° 185° (S) 1,824 5.3 -12.3°
Maximum altitude 22:43:48 57° 111° (ESE) 874 4.3 -12.2°
Drops below altitude 10° 22:48:48 10° 34° (NE) 2,267 7.8 -11.9°
Sets 22:51:12 0° 30° (NNE) 3,198 9.2 -11.8°
